Location: Unspecified
(0.0000°N, 0.0000°E)
Time: 17:25:02
(UTC+00:00)

ISS - Pass Details

Date: 21 January 2020
Orbit: 415 x 422 km, 51.6° (Epoch: 23 January)

Event Time Altitude Azimuth Distance (km) Brightness Sun altitude
Exits shadow 04:51:43 15° 212° (SSW) 1,237 -1.5 -18.6°
Drops below altitude 10° 04:52:53 10° 193° (SSW) 1,484 -0.9 -18.3°
Sets 04:55:32 0° 171° (S) 2,350 0.5 -17.7°
